Location: Keppel Henge
(44.7900°N, 80.9447°W)
Time: 07:05:56
(UTC-04:00)

Envisat - Pass Details

Date: 13 October 2017
Orbit: 764 x 766 km, 98.2° (Epoch: 24 October)

Event Time Altitude Azimuth Distance (km) Brightness Sun altitude
Exits shadow 20:56:59 71° 88° (E) 812 2.8 -24.6°
Maximum altitude 20:57:08 71° 74° (ENE) 809 2.8 -24.6°
Drops below altitude 10° 21:02:12 10° 351° (N) 2,312 5.7 -25.5°
Sets 21:04:31 0° 349° (N) 3,242 6.6 -25.9°
